• In Russia
  • List of Countries
  • For 7 days
  • Water Temperature
  • Satellite Maps
  • Weather Map
  • Weather Widgets
  • user-avatar
    Login

    Hourly Weather Bolshaya Mesha

    Today, 16 August, Thursday

    Time Temperature Precipitation Wind Pressure Humidity
    00:00 +16°C° 0 mm 3 mps 751 mmHg 76%
    01:00 +15°C° 0 mm 4 mps 751 mmHg 76%
    02:00 +15°C° 0 mm 4 mps 750 mmHg 75%
    03:00 +15°C° 0 mm 4 mps 750 mmHg 76%
    04:00 +15°C° 0.2 mm 5 mps 749 mmHg 78%
    05:00 +16°C° 0.2 mm 6 mps 749 mmHg 79%
    06:00 +16°C° 0.2 mm 6 mps 748 mmHg 81%
    07:00 +17°C° 0.4 mm 6 mps 748 mmHg 81%
    08:00 +19°C° 0.4 mm 6 mps 748 mmHg 81%
    09:00 +21°C° 0 mm 7 mps 748 mmHg 81%
    10:00 +22°C° 0.2 mm 7 mps 748 mmHg 77%
    11:00 +24°C° 0.2 mm 7 mps 748 mmHg 73%
    12:00 +26°C° 0.2 mm 7 mps 748 mmHg 70%
    13:00 +26°C° 1.1 mm 7 mps 748 mmHg 71%
    14:00 +26°C° 1.1 mm 7 mps 748 mmHg 72%
    15:00 +26°C° 1.1 mm 6 mps 748 mmHg 73%
    16:00 +24°C° 0.9 mm 6 mps 748 mmHg 77%
    17:00 +22°C° 0.9 mm 5 mps 748 mmHg 81%
    18:00 +21°C° 0.9 mm 4 mps 748 mmHg 85%
    19:00 +20°C° 0 mm 4 mps 748 mmHg 88%
    20:00 +19°C° 0 mm 4 mps 749 mmHg 92%
    21:00 +17°C° 0 mm 4 mps 749 mmHg 95%
    22:00 +16°C° 0 mm 3 mps 749 mmHg 95%
    23:00 +14°C° 0 mm 3 mps 750 mmHg 96%

    Tomorrow, 17 August, Friday

    Time Temperature Precipitation Wind Pressure Humidity
    00:00 +13°C° 0 mm 3 mps 750 mmHg 96%
    01:00 +12°C° 0 mm 3 mps 751 mmHg 96%
    02:00 +12°C° 0 mm 3 mps 751 mmHg 96%
    03:00 +11°C° 0 mm 3 mps 751 mmHg 96%
    04:00 +11°C° 0 mm 3 mps 752 mmHg 94%
    05:00 +11°C° 0 mm 4 mps 752 mmHg 93%
    06:00 +12°C° 0 mm 4 mps 753 mmHg 91%
    07:00 +13°C° 0 mm 4 mps 753 mmHg 85%
    08:00 +15°C° 0 mm 4 mps 753 mmHg 79%
    09:00 +17°C° 0 mm 4 mps 754 mmHg 73%
    10:00 +18°C° 0 mm 4 mps 754 mmHg 68%
    11:00 +20°C° 0 mm 4 mps 754 mmHg 63%
    12:00 +21°C° 0 mm 4 mps 754 mmHg 57%
    13:00 +21°C° 0 mm 4 mps 754 mmHg 56%
    14:00 +21°C° 0 mm 4 mps 754 mmHg 55%
    15:00 +21°C° 0 mm 4 mps 754 mmHg 54%
    16:00 +20°C° 0 mm 4 mps 754 mmHg 59%
    17:00 +19°C° 0 mm 3 mps 754 mmHg 65%
    18:00 +18°C° 0 mm 3 mps 754 mmHg 70%
    19:00 +17°C° 0 mm 3 mps 754 mmHg 73%
    20:00 +14°C° 0 mm 3 mps 754 mmHg 76%
    21:00 +13°C° 0 mm 3 mps 754 mmHg 80%
    22:00 +12°C° 0 mm 3 mps 754 mmHg 82%
    23:00 +12°C° 0 mm 3 mps 754 mmHg 84%

    Day after tomorrow, 18 August, Saturday

    Time Temperature Precipitation Wind Pressure Humidity
    00:00 +11°C° 0 mm 3 mps 755 mmHg 86%
    01:00 +10°C° 0 mm 3 mps 755 mmHg 88%
    02:00 +10°C° 0 mm 3 mps 755 mmHg 89%
    03:00 +9°C° 0 mm 3 mps 755 mmHg 91%
    04:00 +10°C° 0 mm 3 mps 755 mmHg 89%
    05:00 +10°C° 0 mm 3 mps 756 mmHg 87%
    06:00 +10°C° 0 mm 4 mps 756 mmHg 84%
    07:00 +12°C° 0 mm 4 mps 756 mmHg 78%
    08:00 +13°C° 0 mm 5 mps 756 mmHg 72%
    09:00 +15°C° 0 mm 5 mps 756 mmHg 66%
    10:00 +15°C° 0 mm 5 mps 756 mmHg 63%
    11:00 +16°C° 0 mm 5 mps 756 mmHg 61%
    12:00 +17°C° 0 mm 5 mps 756 mmHg 58%
    13:00 +17°C° 0 mm 5 mps 755 mmHg 58%
    14:00 +19°C° 0 mm 5 mps 755 mmHg 57%
    15:00 +19°C° 0 mm 5 mps 755 mmHg 57%
    16:00 +18°C° 0 mm 4 mps 755 mmHg 61%
    17:00 +17°C° 0 mm 4 mps 755 mmHg 66%
    18:00 +16°C° 0 mm 3 mps 755 mmHg 70%
    19:00 +14°C° 0 mm 3 mps 756 mmHg 72%
    20:00 +13°C° 0 mm 3 mps 756 mmHg 74%
    21:00 +12°C° 0 mm 2 mps 756 mmHg 76%
    22:00 +12°C° 0 mm 2 mps 756 mmHg 78%
    23:00 +10°C° 0 mm 2 mps 756 mmHg 80%

    19 August, Sunday

    Time Temperature Precipitation Wind Pressure Humidity
    00:00 +9°C° 0 mm 2 mps 756 mmHg 82%
    01:00 +9°C° 0 mm 2 mps 756 mmHg 83%
    02:00 +8°C° 0 mm 2 mps 757 mmHg 84%
    03:00 +8°C° 0 mm 2 mps 757 mmHg 85%
    04:00 +8°C° 0 mm 2 mps 757 mmHg 83%
    05:00 +9°C° 0 mm 2 mps 757 mmHg 82%
    06:00 +9°C° 0 mm 2 mps 757 mmHg 80%
    07:00 +11°C° 0 mm 3 mps 757 mmHg 74%
    08:00 +13°C° 0 mm 3 mps 757 mmHg 68%
    09:00 +16°C° 0 mm 3 mps 757 mmHg 62%
    10:00 +17°C° 0 mm 3 mps 757 mmHg 58%
    11:00 +18°C° 0 mm 3 mps 756 mmHg 54%
    12:00 +19°C° 0 mm 3 mps 756 mmHg 50%
    13:00 +19°C° 0 mm 2 mps 756 mmHg 50%
    14:00 +20°C° 0 mm 2 mps 756 mmHg 49%
    15:00 +20°C° 0 mm 2 mps 755 mmHg 48%
    16:00 +19°C° 0 mm 2 mps 755 mmHg 54%
    17:00 +18°C° 0 mm 2 mps 755 mmHg 59%
    18:00 +18°C° 0 mm 1 mps 755 mmHg 65%
    19:00 +16°C° 0 mm 1 mps 755 mmHg 68%
    20:00 +14°C° 0 mm 1 mps 755 mmHg 71%
    21:00 +13°C° 0 mm 1 mps 755 mmHg 74%
    22:00 +12°C° 0 mm 1 mps 755 mmHg 76%
    23:00 +11°C° 0 mm 0 mps 755 mmHg 78%

    20 August, Monday

    Time Temperature Precipitation Wind Pressure Humidity
    00:00 +10°C° 0 mm 0 mps 755 mmHg 79%
    01:00 +10°C° 0 mm 0 mps 755 mmHg 80%
    02:00 +10°C° 0 mm 0 mps 755 mmHg 81%
    03:00 +11°C° 0 mm 1 mps 755 mmHg 81%
    04:00 +11°C° 0 mm 1 mps 756 mmHg 80%
    05:00 +12°C° 0 mm 1 mps 756 mmHg 79%
    06:00 +13°C° 0 mm 1 mps 756 mmHg 77%
    07:00 +15°C° 0 mm 1 mps 756 mmHg 72%
    08:00 +16°C° 0 mm 2 mps 755 mmHg 66%
    09:00 +18°C° 0 mm 2 mps 755 mmHg 61%
    10:00 +19°C° 0 mm 2 mps 755 mmHg 59%
    11:00 +20°C° 0 mm 3 mps 755 mmHg 56%
    12:00 +21°C° 0 mm 3 mps 755 mmHg 54%
    13:00 +21°C° 0 mm 3 mps 755 mmHg 55%
    14:00 +21°C° 0 mm 3 mps 754 mmHg 56%
    15:00 +22°C° 0 mm 4 mps 754 mmHg 56%
    16:00 +21°C° 0 mm 3 mps 754 mmHg 61%
    17:00 +19°C° 0 mm 3 mps 754 mmHg 67%
    18:00 +18°C° 0 mm 3 mps 754 mmHg 72%
    19:00 +17°C° 0 mm 3 mps 754 mmHg 71%
    20:00 +16°C° 0 mm 3 mps 754 mmHg 71%
    21:00 +14°C° 0 mm 3 mps 754 mmHg 71%
    22:00 +14°C° 0 mm 3 mps 753 mmHg 72%
    23:00 +13°C° 0 mm 3 mps 753 mmHg 72%

    21 August, Tuesday

    Time Temperature Precipitation Wind Pressure Humidity
    00:00 +13°C° 0 mm 3 mps 753 mmHg 73%
    01:00 +13°C° 0 mm 3 mps 753 mmHg 75%
    02:00 +12°C° 0 mm 3 mps 753 mmHg 77%
    03:00 +12°C° 0 mm 3 mps 753 mmHg 79%
    04:00 +12°C° 0 mm 3 mps 753 mmHg 79%
    05:00 +13°C° 0 mm 4 mps 753 mmHg 79%
    06:00 +13°C° 0 mm 4 mps 753 mmHg 79%
    07:00 +15°C° 0 mm 4 mps 753 mmHg 75%
    08:00 +18°C° 0 mm 4 mps 753 mmHg 72%
    09:00 +19°C° 0 mm 5 mps 752 mmHg 68%
    10:00 +21°C° 0 mm 5 mps 752 mmHg 66%
    11:00 +22°C° 0 mm 5 mps 752 mmHg 64%
    12:00 +23°C° 0 mm 6 mps 752 mmHg 61%
    13:00 +23°C° 0.2 mm 6 mps 752 mmHg 62%
    14:00 +23°C° 0.2 mm 6 mps 752 mmHg 64%
    15:00 +23°C° 0.2 mm 6 mps 752 mmHg 65%
    16:00 +22°C° 0.1 mm 5 mps 751 mmHg 69%
    17:00 +21°C° 0.1 mm 4 mps 751 mmHg 74%
    18:00 +20°C° 0.1 mm 3 mps 751 mmHg 78%
    19:00 +19°C° 0 mm 3 mps 751 mmHg 81%
    20:00 +18°C° 0 mm 3 mps 751 mmHg 83%
    21:00 +17°C° 0 mm 3 mps 751 mmHg 86%
    22:00 +17°C° 0 mm 2 mps 751 mmHg 87%
    23:00 +16°C° 0 mm 2 mps 751 mmHg 89%
    Show more